Location: Izdebno
(52.6670°N, 16.2170°E)
Time: 10:17:03
(UTC+01:00)

Transit 2A - Pass Details

Date: 29 January 2023
Orbit: 591 x 964 km, 66.7° (Epoch: 21 March)

Event Time Altitude Azimuth Distance (km) Brightness Sun altitude
Rises 03:48:31 0° 316° (NW) 3,464 - -35.2°
Reaches altitude 10° 03:51:11 10° 307° (NW) 2,573 - -34.8°
Maximum altitude 03:56:24 32° 247° (WSW) 1,565 - -34.0°
Drops below altitude 10° 04:01:51 10° 187° (S) 2,685 - -33.2°
Sets 04:04:41 0° 178° (S) 3,637 - -32.8°
